#timestamp,LO_Frequency,Hit,StdDev 
1505916015.3,286047004.2,N
1505916035.1,286047001.1,N
1505916055.9,286046997.0,N
1505916075.7,286046999.9,N
1505916095.5,286046999.4,N
1505916115.4,286047002.4,N
1505916135.2,286047000.5,N
1505916155.0,286047004.3,N
1505916155.9,286047004.3,N
1505916175.8,286047005.6,N
1505916195.6,286047001.4,N
1505916215.4,286046999.7,N
1505916235.2,286047003.2,N
1505916255.1,286047004.6,N
1505916256.0,286047004.6,N
1505916275.8,286047006.0,N
1505916295.6,286047003.8,N
1505916315.5,286047005.3,N
1505916335.3,286047003.0,N
1505916355.1,286047005.6,N
1505916375.9,286047005.5,N
1505916395.7,286047003.6,N
1505916415.5,286046998.1,N
1505916435.4,286047002.3,N
1505916455.2,286047000.0,N
1505916475.0,286047005.2,N
1505916475.9,286047005.2,N
1505916495.8,286047007.9,Y
1505916515.6,286047007.2,P
1505916535.4,286047001.9,N
1505916555.3,286047003.6,N
1505916575.1,286047005.5,N
1505916576.0,286047005.5,N
1505916595.8,286047005.9,Y
1505916615.7,286047002.1,P
1505916635.5,286047002.4,N
1505916655.3,286047001.9,N
1505916675.2,286046999.8,N
1505916695.9,286046998.2,N
1505916715.7,286047000.9,N
1505916735.6,286046998.1,N
1505916755.4,286046999.2,N
1505916775.2,286046998.3,N
1505916795.1,286047000.5,N
1505916796.0,286047000.5,N
1505916815.8,286046998.6,N
1505916835.6,286047002.2,N
1505916855.5,286047003.0,N
1505916875.3,286047002.0,N
1505916895.1,286047004.4,N
1505916915.8,286047003.1,N
1505916935.7,286047005.5,N
1505916955.5,286047003.5,N
1505916975.3,286047002.3,N
1505916995.2,286047001.0,N
1505917015.9,286046994.9,N
1505917035.7,286046999.5,N
1505917055.6,286047001.1,N
1505917075.4,286047000.7,N
1505917095.2,286046998.4,N
1505917115.1,286047001.2,N
1505917116.0,286047001.2,N
1505917135.8,286046998.7,N
1505917155.6,286047001.1,N
1505917175.5,286046996.9,N
1505917195.3,286046999.6,N
1505917215.1,286046995.3,N
1505917235.8,286046995.3,N
1505917255.7,286046996.1,N
1505917275.5,286046997.8,N
1505917295.3,286046996.3,N
1505917315.2,286046997.5,N
1505917335.0,286046997.2,N
1505917335.9,286046997.2,N
1505917355.7,286046996.0,N
1505917375.6,286046999.6,N
1505917395.4,286046998.1,N
1505917415.2,286046997.4,N
1505917435.1,286046996.8,N
1505917436.0,286046996.8,N
1505917455.8,286046999.3,N
1505917475.6,286047000.6,N
1505917495.5,286046998.3,N
1505917515.3,286046997.7,N
1505917535.1,286046996.9,N
1505917555.9,286046994.9,N
1505917575.7,286046992.0,Y
1505917595.5,286046993.4,P
1505917615.4,286046995.7,N
1505917635.2,286046996.6,N
1505917655.0,286047000.4,N
1505917655.9,286047000.4,N
1505917675.8,286047004.5,N
1505917695.6,286047004.6,N
1505917715.4,286047006.0,N
1505917735.3,286047003.8,N
1505917755.1,286047003.2,N
1505917756.0,286047003.2,N
1505917775.8,286047004.5,N
1505917795.7,286047007.5,N
1505917815.5,286047004.7,N
1505917835.3,286047006.8,N
1505917855.1,286047003.5,N
1505917875.9,286047001.3,N
1505917895.7,286047001.5,N
1505917915.5,286047004.0,N
1505917935.4,286046998.6,N
1505917955.2,286047001.2,N
1505917975.0,286046997.1,N
1505917975.9,286046997.1,N
1505917995.8,286046996.9,N
1505918015.6,286046995.1,N
1505918035.4,286046995.5,N
1505918055.3,286046997.2,N
1505918075.1,286046998.5,N
1505918076.0,286046998.5,N
1505918095.8,286047004.1,N
1505918115.7,286047004.5,N
1505918135.5,286047007.3,N
1505918155.3,286047004.8,N
1505918175.2,286047004.3,N
1505918195.9,286047004.2,N
1505918215.7,286047002.3,N
1505918235.5,286047004.9,N
1505918255.4,286047007.0,N
1505918275.2,286047006.7,N
1505918295.0,286047005.5,N
1505918295.9,286047005.5,N
1505918315.8,286047005.1,N
1505918335.6,286047005.3,N
1505918355.4,286047006.1,N
1505918375.3,286047007.5,N
1505918395.1,286047003.4,N
1505918415.8,286047001.5,N
1505918435.7,286047002.3,N
1505918455.5,286046999.1,N
1505918475.3,286046996.7,N
1505918495.2,286047001.1,N
1505918515.9,286047003.0,N
1505918535.7,286047005.2,N
1505918555.6,286047001.4,N
1505918575.4,286047004.2,N
1505918595.2,286047003.4,N
1505918615.0,286047001.9,N
1505918615.9,286047001.9,N
1505918635.8,286046997.2,N
1505918655.6,286046998.6,N
1505918675.4,286047002.1,N
1505918695.3,286047003.8,N
1505918715.1,286047006.7,N
1505918735.8,286047006.0,N
1505918755.7,286047003.0,N
1505918775.5,286047006.7,N
1505918795.3,286047007.2,N
1505918815.2,286047003.6,N
1505918835.9,286047002.7,N
1505918855.7,286047001.7,N
1505918875.6,286047005.9,N
1505918895.4,286047004.7,N
1505918915.2,286047004.5,N
1505918935.1,286047006.7,N
1505918936.0,286047006.7,N
1505918955.8,286047005.6,N
1505918975.6,286047004.1,N
1505918995.5,286047003.6,N
1505919015.3,286047001.8,N
1505919035.1,286047004.6,N
1505919055.8,286047005.1,N
1505919075.7,286047004.1,N
1505919095.5,286047004.4,N
1505919115.3,286047002.5,N
1505919135.2,286047000.2,N
1505919155.9,286046998.6,N
1505919175.7,286047005.5,N
1505919195.6,286047003.2,N
1505919215.4,286047002.8,N
1505919235.2,286047002.7,N
1505919255.1,286047004.1,N
1505919256.0,286047004.1,N
1505919275.8,286047005.8,N
1505919295.6,286047003.2,N
1505919315.5,286047004.3,N
1505919335.3,286047002.2,N
1505919355.1,286047000.3,N
1505919375.8,286047000.4,N
1505919395.7,286046999.7,N
1505919415.5,286047005.9,N
1505919435.3,286047004.0,N
1505919455.2,286047004.1,N
1505919475.9,286047002.9,N
1505919495.7,286047006.5,Y
1505919515.6,286047004.9,P
1505919535.4,286047003.2,P
1505919555.2,286047003.6,P
1505919575.1,286047005.4,Y
1505919576.0,286047005.4,P
1505919595.8,286047004.1,P
